Theta_e
339 348 347 340 344 344 343 340 336 335 335 334 335 339 339 339 337 335 334 332 331 327 329 331 334 336 335 337 337 337 334 332 332 328 325 319 318 327 330 329 330 330 328
340 347 345 343 345 344 341 339 334 334 334 334 335 336 339 337 337 335 333 331 329 329 327 329 331 333 336 337 336 335 335 333 331 328 325 321 323 325 329 328 329 330 326
341 347 346 342 344 343 342 338 335 334 332 332 336 336 337 333 332 333 329 328 329 329 327 327 329 329 329 330 331 332 331 331 329 326 323 326 325 322 329 330 330 329 324
341 347 346 342 343 343 342 339 334 336 332 333 337 335 331 328 328 328 328 329 330 329 327 327 326 326 326 326 327 326 327 327 326 323 325 322 323 323 326 331 328 332 330
342 345 347 344 344 343 342 339 335 334 332 330 335 332 329 329 329 329 330 330 330 328 323 325 327 328 329 329 331 332 331 329 329 329 328 328 327 323 317 328 331 331 334
341 343 348 345 344 344 342 338 336 333 332 331 332 329 329 333 333 334 333 331 329 328 325 325 329 331 332 330 331 331 330 330 329 330 330 330 330 328 327 329 327 329 330
341 343 346 345 344 343 341 338 336 334 332 332 330 328 330 334 333 333 334 332 330 329 328 328 333 333 333 332 332 333 328 326 329 331 332 332 332 328 332 332 332 331 330
341 344 344 344 345 343 341 339 336 336 333 332 331 331 332 333 330 334 333 333 332 330 329 329 331 333 332 332 333 332 330 330 332 333 332 332 332 329 333 333 332 333 335
340 343 343 344 346 342 341 338 335 332 331 328 326 330 333 332 329 334 335 334 333 330 327 330 332 332 332 332 331 331 331 330 331 330 329 331 330 328 333 334 335 335 336
340 342 342 343 343 345 343 338 335 333 333 331 326 328 330 330 328 330 334 334 330 328 330 332 333 332 331 331 330 329 328 326 327 328 327 329 326 329 332 331 329 330 333
340 341 342 342 343 344 343 341 335 333 336 333 333 330 329 330 329 329 330 327 328 330 331 331 332 331 330 327 325 324 323 322 321 320 321 321 323 326 327 327 327 330 331
340 340 342 342 343 343 343 342 339 336 336 335 335 334 330 329 326 329 329 328 330 331 331 332 330 325 320 319 318 317 318 316 315 315 317 314 320 323 325 327 326 326 327
339 340 341 343 344 344 343 342 340 337 338 337 336 334 328 327 328 329 331 332 334 331 327 323 319 316 314 313 313 312 309 309 311 312 315 313 317 322 325 322 321 323 322
337 340 341 343 345 344 343 342 340 338 337 337 336 334 330 329 330 331 332 330 325 324 318 316 314 311 309 307 307 307 306 307 309 310 312 314 320 319 319 317 318 319 318
334 337 340 342 343 343 343 342 341 339 337 337 336 333 331 330 331 332 324 322 323 316 314 312 310 307 305 304 304 304 304 305 306 307 309 312 313 313 313 313 314 313 313
329 332 336 341 342 342 343 343 341 339 337 337 336 332 333 332 332 326 324 321 314 311 309 307 304 303 302 301 302 302 303 303 304 305 305 305 305 307 307 307 307 307 308
325 325 328 334 340 343 343 343 341 339 337 337 336 334 333 331 330 327 322 316 310 306 303 303 303 302 301 301 301 301 301 301 302 303 302 302 301 298 299 299 301 301 302
324 324 323 323 332 339 340 342 341 339 337 337 335 334 332 330 329 325 317 310 305 303 302 301 301 302 301 300 301 301 300 300 300 300 299 299 299 298 297 295 294 293 293
323 323 323 324 326 333 338 341 340 339 337 333 333 333 331 329 326 320 313 304 303 302 301 300 299 299 300 300 299 299 300 302 300 299 299 298 298 297 297 295 294 293 293
322 323 323 326 330 333 337 339 338 333 329 334 331 330 329 324 320 311 304 303 302 300 299 299 298 298 298 298 298 299 302 303 300 300 299 297 296 296 296 295 294 294 293
322 323 325 329 333 334 336 333 327 324 323 328 329 327 322 318 310 305 303 301 300 299 298 297 297 297 297 296 298 300 300 299 301 301 299 297 296 295 295 294 293 293 293
323 324 327 331 333 334 331 330 326 321 315 323 322 316 314 308 303 303 303 300 299 298 297 297 297 297 296 295 296 298 301 300 298 299 297 296 295 294 294 293 293 292 292
322 325 329 332 332 332 331 326 318 310 312 309 307 305 303 302 302 302 302 299 298 297 297 296 296 295 296 295 294 296 299 300 296 297 297 295 295 294 293 292 292 291 291
322 325 330 331 331 330 321 318 316 319 313 303 305 302 300 300 300 300 299 297 297 296 296 294 294 294 294 295 295 293 293 293 296 296 295 295 294 293 292 292 291 291 290
321 326 329 329 330 324 320 320 321 316 314 302 301 299 299 298 298 297 297 296 295 294 294 293 293 293 293 293 293 293 293 293 293 294 295 295 293 293 292 291 290 290 290
321 326 328 329 327 321 318 318 316 310 304 299 297 297 298 298 296 295 295 295 294 293 293 292 292 292 292 292 291 291 292 292 293 293 294 293 293 292 292 291 290 289 289
Wind_Speed
11 19 23 18 18 18 15 13 11 9 6 5 5 7 8 10 9 8 6 5 7 7 5 3 7 7 4 3 7 6 3 1 3 6 8 10 5 4 2 2 5 5 7
19 19 23 18 18 18 16 13 10 8 6 5 7 8 8 9 8 8 6 4 5 6 6 2 3 6 9 8 7 5 3 2 4 6 7 7 6 4 3 1 2 3 6
20 20 20 19 19 17 15 13 10 8 6 8 8 9 10 8 8 7 2 3 5 6 6 5 3 3 3 3 3 1 2 3 6 7 6 3 3 5 3 3 4 4 4
19 19 19 20 19 16 15 12 10 9 8 10 9 12 9 6 5 4 5 5 4 5 6 6 5 4 3 2 3 3 3 3 5 7 5 4 4 7 5 6 6 8 6
19 19 18 19 19 16 14 12 10 9 9 10 11 11 6 7 6 5 4 3 2 5 6 7 7 6 5 4 4 4 4 5 7 5 5 5 6 6 7 8 7 7 10
18 17 17 21 18 17 13 12 10 9 10 11 12 12 9 5 4 4 5 5 2 2 4 5 5 5 5 5 4 4 3 3 5 5 6 6 5 8 7 9 10 10 8
17 17 17 18 19 17 14 13 11 11 10 10 12 12 6 4 3 6 9 7 3 0 3 4 4 4 4 4 4 4 4 4 5 5 6 6 6 9 8 9 10 11 12
16 16 15 16 17 16 13 13 11 10 10 10 10 9 5 3 1 4 9 7 3 1 2 3 4 4 4 4 4 4 4 4 6 7 8 8 9 10 10 9 10 13 14
14 14 14 16 14 14 13 12 11 10 9 7 10 9 6 4 0 5 7 5 2 0 2 3 3 3 3 3 4 5 6 7 6 8 9 8 10 10 11 12 12 13 15
15 14 14 15 15 14 12 13 11 10 10 6 7 9 8 6 3 4 4 4 3 1 1 2 2 3 4 4 5 6 5 6 5 6 6 7 9 9 9 10 11 12 14
15 15 15 15 15 15 13 14 11 12 10 7 6 7 5 5 4 4 5 4 3 2 0 2 3 3 3 4 4 5 6 5 5 5 5 8 8 8 8 9 9 7 10
15 17 17 17 16 15 14 14 13 12 11 10 8 6 5 6 6 6 5 4 3 1 2 3 3 3 4 4 5 7 5 6 5 6 5 7 7 7 6 5 7 9 10
14 16 18 18 17 17 15 15 14 14 12 11 10 8 7 7 7 6 4 3 2 2 2 2 3 3 4 5 6 6 6 6 6 5 6 4 4 4 5 8 9 10 11
12 15 17 19 19 20 16 17 16 15 15 13 12 11 9 8 8 7 5 4 4 2 2 2 2 4 5 5 6 6 7 6 5 4 5 3 7 8 8 9 9 10 11
14 15 17 19 20 21 20 19 17 16 16 14 13 12 12 10 9 8 7 5 4 3 2 2 3 4 5 5 6 6 6 5 3 1 1 4 6 9 10 10 10 11 11
16 16 16 19 21 21 23 20 19 18 16 15 13 14 12 10 10 11 9 8 4 2 2 2 3 4 5 5 5 5 4 3 1 1 2 2 2 5 9 10 10 11 12
16 15 17 19 20 20 22 21 21 20 18 16 14 14 13 12 11 12 11 9 5 3 3 3 3 4 5 5 5 4 3 1 1 2 2 2 2 3 4 7 10 11 12
15 15 13 15 20 22 22 23 22 20 19 17 16 15 16 16 15 14 12 9 6 4 3 3 3 4 5 6 6 5 4 4 4 3 2 2 2 2 6 8 11 13 14
17 16 14 13 17 21 22 22 21 21 20 19 20 20 20 19 17 15 12 9 6 5 4 3 4 5 7 8 6 7 7 7 6 4 2 1 3 4 5 10 15 16 17
18 17 16 13 15 19 21 21 19 19 20 23 23 23 23 21 20 16 12 10 7 6 5 5 4 6 8 10 8 7 1 5 6 5 3 3 3 4 6 9 13 13 15
15 15 16 16 17 22 24 23 21 22 21 25 24 25 25 23 20 16 14 11 8 7 7 5 4 6 8 12 7 3 3 3 6 7 6 9 5 6 8 10 14 14 14
18 17 17 19 21 24 24 23 17 24 18 26 27 26 25 23 20 16 14 11 10 9 8 7 6 3 5 10 6 4 3 3 0 5 10 2 8 7 10 16 15 15 17
19 18 19 21 23 24 23 22 21 19 24 22 25 25 24 22 18 16 14 12 10 8 7 6 6 6 4 5 7 5 2 2 10 3 4 10 6 12 16 16 16 18 16
22 19 20 22 25 26 25 27 28 25 25 21 31 27 25 20 16 16 14 12 10 9 7 6 5 5 4 4 2 4 3 4 3 5 4 9 10 15 19 18 17 22 17
24 22 23 25 26 27 29 28 28 23 20 26 32 29 25 18 15 15 13 12 10 8 7 6 4 4 3 3 3 5 4 6 7 6 9 9 19 18 18 14 22 14 17
22 23 25 27 28 27 31 32 31 32 33 30 27 26 21 17 14 13 13 11 9 8 7 5 4 3 1 2 3 4 5 5 8 9 9 15 18 21 17 22 13 18 18
Wind_Direction
163 166 163 167 161 158 152 147 142 135 131 134 148 156 159 149 143 121 103 69 44 38 33 36 31 46 134 195 135 132 124 33 355 341 347 351 5 23 20 220 242 258 261
159 164 166 172 164 162 156 154 152 144 134 139 151 154 157 147 145 128 111 81 50 41 39 48 35 40 57 81 87 84 77 29 328 323 340 359 10 25 8 174 225 222 265
156 162 168 177 174 167 161 159 154 144 128 126 136 139 136 125 125 120 75 65 69 46 42 54 53 34 31 46 66 48 11 348 323 319 330 337 324 331 336 313 271 261 272
160 162 168 181 178 175 165 163 156 148 133 138 144 127 125 142 162 156 128 112 86 58 59 62 62 48 23 19 6 347 340 331 316 328 342 320 315 308 317 324 274 259 258
165 165 168 181 180 178 167 164 154 147 141 140 131 134 138 145 158 162 168 149 123 43 57 65 58 47 36 31 13 359 355 358 349 1 341 337 329 314 301 304 295 299 256
168 169 175 177 183 179 175 165 156 146 143 140 146 151 161 195 216 221 216 218 214 39 55 59 53 34 14 18 4 347 355 338 338 324 329 320 324 302 315 308 296 292 284
171 174 171 175 184 182 177 167 158 153 156 157 155 164 155 168 213 252 219 215 230 22 36 34 21 7 355 357 350 348 345 317 326 324 324 320 319 314 318 310 301 290 277
174 172 172 180 190 187 183 171 163 159 156 167 169 175 166 195 280 339 190 194 210 165 16 8 8 8 16 25 8 358 346 343 331 320 320 316 305 322 316 310 299 294 285
177 173 173 179 187 191 188 179 169 159 149 144 173 183 187 214 173 85 142 165 167 286 10 24 27 28 13 354 335 327 322 322 318 312 311 308 300 314 316 312 313 308 303
174 177 179 177 187 188 188 188 176 165 159 143 148 181 203 216 200 145 134 161 173 198 54 30 353 349 324 327 333 334 340 356 326 316 313 311 310 320 318 324 328 325 325
179 182 183 184 187 192 189 186 183 172 182 187 171 176 197 197 191 161 184 173 166 166 194 307 338 342 354 348 352 348 357 326 333 322 325 310 318 324 325 329 343 3 9
189 189 189 188 195 196 191 190 186 185 184 190 183 176 183 188 180 169 163 173 181 224 292 316 343 16 30 6 340 346 328 327 333 320 324 322 341 343 347 28 46 30 28
203 195 196 191 195 197 195 197 193 191 189 192 191 180 164 159 162 166 158 154 157 116 97 68 34 33 13 357 336 329 328 323 318 317 326 318 358 28 59 50 39 42 35
216 208 201 199 197 197 191 202 198 197 194 195 196 185 173 168 163 166 170 146 135 136 87 61 25 17 6 355 337 323 326 321 313 314 345 76 88 69 64 45 41 36 24
224 216 210 205 204 197 196 198 202 197 200 198 192 189 180 173 169 166 146 150 141 92 69 21 5 6 348 339 329 326 327 319 315 290 46 139 95 71 57 46 41 29 22
234 226 216 211 208 201 200 199 196 198 199 197 194 185 178 177 172 168 160 156 121 98 53 25 17 352 339 339 328 328 330 312 310 161 163 87 135 70 55 43 32 21 14
237 237 226 219 213 207 202 202 198 195 194 193 191 184 178 173 179 175 165 152 132 115 73 35 7 353 341 343 333 319 316 277 195 158 138 128 40 27 6 19 17 10 2
251 236 225 219 214 212 208 203 199 192 188 187 184 180 179 182 183 172 167 148 133 116 89 51 13 355 353 346 333 310 300 228 193 163 118 97 54 24 345 344 345 343 339
250 240 232 226 219 210 206 201 193 187 183 178 181 181 180 177 172 170 159 138 131 115 100 73 34 23 3 350 339 313 287 218 201 174 155 26 356 353 333 333 336 340 330
248 240 234 223 207 200 192 188 176 176 175 179 178 177 173 171 168 159 145 142 129 118 97 79 57 35 16 349 332 317 281 200 204 209 246 304 298 330 326 333 332 325 325
240 233 223 204 195 184 179 175 172 166 168 171 174 173 171 169 164 152 146 140 131 117 100 92 70 40 17 0 338 317 267 222 236 243 258 290 271 309 319 321 325 322 319
234 222 212 199 191 188 187 184 171 165 159 166 169 169 169 165 157 150 148 140 132 117 100 78 64 44 27 19 359 316 323 202 223 227 290 267 298 310 317 322 321 322 319
228 213 204 197 187 185 181 161 146 146 152 153 160 159 160 159 154 150 146 139 130 120 105 85 63 49 27 21 26 347 296 308 332 259 254 298 282 314 317 317 316 317 313
222 209 196 190 185 178 172 166 168 164 157 162 162 162 157 158 148 147 144 137 132 121 111 93 72 56 24 10 339 6 333 301 308 304 277 287 288 304 308 308 307 311 311
218 197 189 185 185 177 176 175 170 158 152 153 163 158 156 151 149 146 144 140 131 123 114 107 90 67 49 4 338 322 308 292 272 281 299 306 301 304 302 301 305 298 307
208 189 184 184 183 178 176 172 167 156 153 150 153 152 153 154 148 145 143 138 133 127 123 117 105 82 49 335 301 293 298 301 302 294 291 298 301 306 302 302 295 302 305